Content
SEND FEEDBACK

Daily
Averages
Monthly
Summary
Mexico

CANCUN, QUINTANA ROO


Home > North America > Mexico > Quintana Roo
Elevation: 9 meters     Latitude: 21 09N     Longitude: 086 49W

WEATHER
 
SELECT A DAY
Number of Records: 165,825;   Date Range: 1/1/95 - 9/29/14
 
SHARE

PRINT THIS DATA

[ ← Previous Day ]
WEATHER ALMANAC - 20 APRIL, 2013
[ Next Day → ]
[ °F ]   °C
Weather ElementAverageHighLow
Temperature27.8 °C30 °C (10:44 am)26 °C (1:44 am)
Dewpoint23.1 °C24 °C (6:52 pm)22 °C (8:40 am)
Humidity75.9 %84 % (6:52 pm)62 % (10:44 am)
Barometer1014.6 hPa1016.9 hPa (10:46 pm)1012.5 hPa (3:46 am)
Wind Speed19 km/h31.5 km/h (2:43 pm)
Weather ElementAverage
Visibility11.3 km
Wind DirectionESE (124.8 °)

Weather ElementTotal
Precipitation---
Cooling Degree Days9.7 (Base 18.3)
Growing Degree Days18 (Base 10)
Averaged from 23 records on 20 April, 2013
WEATHER CONDITIONS BREAKOUT
WIND DIRECTION BREAKOUT
WEATHER BY HOUR - 20 APRIL, 2013
[ °F ]   °C
Local TimeTemperatureDewpointHumidityBarometerVisibilityWind DirectionWind SpeedGust SpeedPrecipitationEventsConditions
1:44 AM26 °C23 °C83 %1014.2 hPa11.3 kmESE (120°)13 km/hClear
2:44 AM26 °C23 °C83 %1012.9 hPa11.3 kmESE (120°)24.1 km/hPartly Cloudy
3:46 AM26 °C23 °C83 %1012.5 hPa11.3 kmESE (120°)16.7 km/hScattered Clouds
4:45 AM26 °C23 °C83 %1013.9 hPa11.3 kmSE (140°)13 km/hScattered Clouds
5:44 AM26 °C23 °C83 %1014.2 hPa11.3 kmSSE (150°)9.3 km/hScattered Clouds
6:43 AM26 °C23 °C83 %1013.5 hPa11.3 kmCalmScattered Clouds
7:42 AM27 °C23 °C79 %1015.2 hPa11.3 kmSE (140°)18.5 km/hScattered Clouds
8:40 AM29 °C22 °C66 %1016.3 hPa11.3 kmSE (140°)20.4 km/hMostly Cloudy
9:43 AM29 °C22 °C66 %1016.6 hPa11.3 kmSE (140°)13 km/hMostly Cloudy
10:44 AM30 °C22 °C62 %1016.6 hPa11.3 kmSE (130°)18.5 km/hMostly Cloudy
11:52 AM30 °C22 °C62 %1016.3 hPa11.3 kmESE (120°)20.4 km/hMostly Cloudy
12:46 PM30 °C23 °C66 %1015.6 hPa11.3 kmESE (120°)24.1 km/hScattered Clouds
1:43 PM30 °C23 °C66 %1014.6 hPa11.3 kmSE (130°)25.9 km/hScattered Clouds
2:43 PM30 °C22 °C62 %1013.5 hPa11.3 kmSE (130°)31.5 km/hScattered Clouds
3:41 PM29 °C23 °C70 %1013.5 hPa11.3 kmSE (140°)27.8 km/hScattered Clouds
4:45 PM29 °C23 °C70 %1013.2 hPa11.3 kmSE (140°)29.6 km/hMostly Cloudy
5:45 PM28 °C23 °C74 %1012.9 hPa11.3 kmSE (130°)25.9 km/hMostly Cloudy
6:52 PM27 °C24 °C84 %1013.5 hPa11.3 kmSE (140°)25.9 km/hMostly Cloudy
7:48 PM27 °C24 °C84 %1014.2 hPa11.3 kmSE (140°)22.2 km/hMostly Cloudy
8:40 PM27 °C24 °C84 %1015.2 hPa11.3 kmESE (120°)16.7 km/hMostly Cloudy
9:46 PM27 °C24 °C84 %1015.9 hPa11.3 kmESE (120°)9.3 km/hMostly Cloudy
10:46 PM27 °C24 °C84 %1016.9 hPa11.3 kmESE (120°)16.7 km/hMostly Cloudy
11:42 PM27 °C24 °C84 %1016.6 hPa11.3 kmESE (120°)13 km/hMostly Cloudy
Hourly data recorded from MMUN, located 0 kilometers away from Cancun, Quintana Roo







STORIES FROM OUR PARTNERS